Regional Weather Roundup
Issued by NWS Kansas City/Pleasant Hill, MO

Home | Current Version | Previous Version | Graphics & Text | Print | Product List | Glossary Off
Versions: 1 2 3 4 5 6 7 8 9 10 11 12 13 14 15 16 17 18 19 20 21 22 23 24 25 26 27

000
ASUS43 KEAX 092310
RWREAX

WEATHER ROUNDUP FOR EASTERN KANSAS AND NORTHWEST MISSOURI
NATIONAL WEATHER SERVICE KANSAS CITY/PLEASANT HILL MO
500 PM CST FRI DEC 09 2016

KSZ040-057-103>105-MOZ028-029-037-043-100000-
...KANSAS CITY METROPOLITAN AREA...

CITY           SKY/WX    TMP DP  RH WIND       PRES   REMARKS
K.C. INTL      CLOUDY    27   9  46 SE5       30.52F WCI  22
K.C. DOWNTOWN  CLOUDY    28  10  46 SE6       30.54F WCI  22
LEES SUMMIT    CLOUDY    27  10  49 SE5       30.54S WCI  22
OLATHE - IXD   CLOUDY    26  12  55 SE7       30.52S WCI  18
OLATHE - OJC   CLOUDY    25  11  55 SE5       30.52S WCI  19
LAWRENCE       CLOUDY    26  15  63 E8        30.53F WCI  18

$$

MOZ001>008-011>017-020>025-030>033-038>040-044>046-053-054-100000-
...NORTHERN AND CENTRAL MISSOURI...

CITY           SKY/WX    TMP DP  RH WIND       PRES   REMARKS
ST. JOSEPH     CLOUDY    26  10  50 SE6       30.54F WCI  19
MOSBY          CLOUDY    28  10  47 E6        30.55F WCI  22
WARRENSBURG    CLOUDY    28  10  47 CALM      30.56S
WHITEMAN AFB   CLOUDY    27   9  46 CALM      30.54S
CLINTON        CLEAR     27   9  46 CALM      30.56R
SEDALIA        CLOUDY    26   7  44 NE5       30.56S WCI  20
WARSAW         NOT AVBL
CHILLICOTHE      N/A     25   6  44 S3        30.57F
KIRKSVILLE     CLOUDY    25   9  50 CALM      30.55F

$$

MOZ041-047>049-056>058-063>065-088>090-097-100000-
...EASTERN AND SOUTHERN MISSOURI...

CITY           SKY/WX    TMP DP  RH WIND       PRES   REMARKS
ST. LOUIS INTL PTCLDY    26  12  55 NW6       30.58S WCI  19
SPIRIT OF STL  PTCLDY    26  11  52 NW5       30.58S WCI  20
COLUMBIA       CLOUDY    26   9  48 CALM      30.56S
JEFFERSON CITY CLEAR     27  10  49 CALM      30.58S
ROLLA          CLEAR     25   9  50 N3        30.51F
OSAGE BEACH    CLEAR     27  10  49 CALM      30.54F
SPRINGFIELD    CLOUDY    31  11  43 S6        30.49F WCI  25
BRANSON        MOCLDY    32  10  40 E6        30.51F WCI  26
JOPLIN         CLOUDY    31  12  45 SE6       30.51F WCI  25
WEST PLAINS    CLEAR     30  11  45 S3        30.52F

$$

IAZ060-094-KSZ022-034>040-054-083-096-NEZ052-066-093-100000-
...KANSAS...SOUTHEAST NEBRASKA AND IOWA...

CITY           SKY/WX    TMP DP  RH WIND       PRES   REMARKS
TOPEKA         CLOUDY    27  13  55 E6        30.52S WCI  20
MANHATTAN      CLOUDY    28  13  53 SE7       30.48S WCI  21
EMPORIA        CLOUDY    28  12  51 SE9       30.47S WCI  19
CHANUTE        CLOUDY    29  13  51 SE8       30.50F WCI  21
WICHITA        CLOUDY    28  12  51 S13       30.44S WCI  17
OMAHA          CLOUDY    22   9  57 E7        30.52F WCI  13
LINCOLN        CLOUDY    22  12  65 SE8       30.48F WCI  12
FALLS CITY     CLOUDY    25  12  58 SE6       30.51F WCI  18
LAMONI         CLOUDY    23  10  57 NW3       30.52F
DES MOINES     CLOUDY    22  10  60 CALM      30.53F

$$





USA.gov is the U.S. government's official web portal to all federal, state and local government web resources and services.